     2.10           OBSERVATION DATA    G (GPS)             RINEX VERSION / TYPE
teqc 2003Apr29 20040324 09:10:48UTC                         PGM / RUN BY / DATE
Solaris 2.7|Ultra 2|cc SC5.0|=+-|*Sparc                     COMMENT
teqc 2003Apr29 20040324 08:25:35UTC                         COMMENT
teqc 2003Mar31 GPS RT server 20040324 06:53:58UTC           COMMENT
Linux 2.0.36|Pentium II|gcc -static|Linux|486/DX+           COMMENT
BIT 2 OF LLI FLAGS DATA COLLECTED UNDER A/S CONDITION       COMMENT
MAS1                                                        MARKER NAME
31303M002                                                   MARKER NUMBER
AUTOMATIC ESA/ESOC                                          OBSERVER / AGENCY
LP020004003 ASHTECH Z-XII3 NAV CD00, 1D02                   REC # / TYPE / VERS
271 AOAD/M_T NONE                                           ANT # / TYPE
  5439192.2651 -1522055.6288  2953454.7059                  APPROX POSITION XYZ
        0.0330        0.0000        0.0000                  ANTENNA: DELTA H/E/N
     1     1                                                WAVELENGTH FACT L1/2
     9    L1    L2    C1    P2    P1    D1    D2    S1    S2# / TYPES OF OBSERV
    30.0000                                                 INTERVAL
SNR is mapped to RINEX snr flag value [1-9]                 COMMENT
L1: 1 -> 1; 90 -> 5; 210 -> 9                               COMMENT
L2: 1 -> 1; 150 -> 5; 250 -> 9                              COMMENT
pseudorange smoothing corrections applied                   COMMENT
Forced Modulo Decimation to 1 seconds                       COMMENT
Forced Modulo Decimation to 30 seconds                      COMMENT
  2004     3    24     8     0    0.0000000     GPS         TIME OF FIRST OBS
Checked by ROCK 1.0 [24.03.04-08:25]; status 2: file fixed  COMMENT
                                                            END OF HEADER
 04  3 24  8  0  0.0000000  0  7G16G15G21G30G 6G 3G25
 -10746486.11648  -8230089.08446  22030890.8804   22030895.1704   22030890.5494
      1781.5664       1388.2384        165.0004        166.0004
 -11121406.99048  -8643712.78846  21951292.1324   21951298.0624   21951291.5514
      2929.3424       2282.6084        167.0004        169.0004
 -14766338.49448 -11493615.11646  21326112.6764   21326116.6804   21326112.4114
        -3.4104         -2.6434        182.0004        182.0004
   1666889.71446   1816955.34744  23957269.3554   23957276.8674   23957269.9334
     -2290.6754      -1784.9374        124.0004        131.0004
   2195520.43346   1725892.92145  24014765.5304   24014772.6754   24014765.2804
     -2685.0044      -2092.2054        133.0004        138.0004
  -5302290.24447  -4112699.83945  22763118.0484   22763123.9354   22763117.8804
      2121.9114       1653.4324        150.0004        154.0004
 -19787542.43448 -15404979.82347  20562818.5154   20562823.2804   20562818.5144
      -830.2544       -646.9364        191.0004        191.0004
 04  3 24  8  0 30.0000000  0  7G16G15G21G30G 6G 3G25
 -10799909.35248  -8271717.58646  22020724.7844   22020729.0684   22020724.4944
      1779.9274       1386.9584        165.0004        167.0004
 -11209140.81448  -8712076.79446  21934597.0174   21934602.8074   21934596.3714
      2919.5264       2274.9494        167.0004        169.0004
 -14765961.14848 -11493321.09046  21326184.5054   21326188.5534   21326184.2154
       -21.7734        -16.9554        182.0004        182.0004
   1735676.42646   1870555.30945  23970359.1214   23970366.6254   23970359.5014
     -2295.1334      -1788.4144        125.0004        134.0004
   2276053.26546   1788645.68245  24030090.4074   24030097.5054   24030090.3444
     -2683.8474      -2091.3044        133.0004        138.0004
  -5365822.48347  -4162205.47745  22751028.3364   22751034.2624   22751028.1464
      2113.5784       1646.9444        150.0004        154.0004
 -19762368.77848 -15385364.00747  20567608.8864   20567613.6784   20567608.9124
      -848.0524       -660.8224        191.0004        191.0004
 04  3 24  8  1  0.0000000  0  7G16G15G21G30G 6G 3G25
 -10853282.89348  -8313307.36046  22010568.1124   22010572.4074   22010567.7724
      1778.3164       1385.7034        165.0004        168.0004
 -11296577.67348  -8780209.40646  21917958.3084   21917964.1324   21917957.6784
      2909.5984       2267.2384        167.0004        169.0004
 -14765032.21048 -11492597.23946  21326361.3514   21326365.3174   21326360.9974
       -40.1244        -31.2674        182.0004        183.0004
   1804598.83046   1924260.98545  23983475.0464   23983482.3434   23983475.0614
     -2299.6884      -1791.9614        125.0004        133.0004
   2356549.55346   1851369.96845  24045408.6834   24045415.5954   24045408.7744
     -2682.5654      -2090.3074        132.0004        139.0004
  -5429103.85747  -4211515.62845  22738986.2904   22738992.1694   22738986.2364
      2105.3124       1640.5034        149.0004        152.0004
 -19736660.39848 -15365331.52947  20572501.0104   20572505.8284   20572501.0354
      -865.8174       -674.6554        190.0004        191.0004
 04  3 24  8  1 30.0000000  0  7G16G15G21G30G 6G 3G25
 -10906604.88848  -8354856.96546  22000421.2254   22000425.6494   22000420.9094
      1776.5324       1384.3184        166.0004        168.0004
 -11383713.64448  -8848107.55646  21901376.8354   21901382.7454   21901376.2654
      2899.5184       2259.3694        168.0004        169.0004
 -14763550.32348 -11491442.52946  21326643.3744   21326647.2944   21326642.9854
       -58.5904        -45.6564        182.0004        183.0004
   1873658.21746   1978073.41445  23996616.5434   23996623.9864   23996616.8004
     -2304.2544      -1795.5284        126.0004        134.0004
   2437009.01746   1914065.57745  24060719.5244   24060726.5314   24060719.8794
     -2681.3154      -2089.3384        133.0004        139.0004
  -5492133.23447  -4260629.43245  22726992.1504   22726997.9044   22726991.9844
      2096.7564       1633.8334        149.0004        153.0004
 -19710417.14348 -15344882.25247  20577494.9434   20577499.7704   20577494.9574
      -883.6684       -688.5684        190.0004        191.0004
 04  3 24  8  2  0.0000000  0  7G16G15G21G30G 6G 3G25
 -10959875.44248  -8396366.50346  21990284.2624   21990288.6054   21990283.9244
      1774.7294       1382.9064        167.0004        168.0004
 -11470546.98548  -8915769.88646  21884853.0234   21884858.9104   21884852.3774
      2889.2664       2251.3744        168.0004        171.0004
 -14761516.51448 -11489857.75346  21327030.4504   21327034.3274   21327030.0074
       -77.0874        -60.0664        182.0004        183.0004
   1942853.53346   2031991.73445  24009784.2384   24009791.4084   24009784.3114
     -2308.8954      -1799.1374        126.0004        135.0004
   2517429.74646   1976730.99345  24076023.3104   24076029.9314   24076023.3404
     -2680.1434      -2088.4214        133.0004        140.0004
  -5554911.87947  -4309547.84845  22715045.7124   22715051.5264   22715045.6074
      2088.4044       1627.3294        149.0004        152.0004
 -19683640.73048 -15324017.53847  20582590.3374   20582595.1954   20582590.3554
      -901.5094       -702.4724        190.0004        191.0004
 04  3 24  8  2 30.0000000  0  7G16G15G21G30G 6G 3G25
 -11013093.58348  -8437835.18946  21980157.2444   21980161.5614   21980156.8714
      1773.0584       1381.6174        167.0004        169.0004
 -11557074.67748  -8983194.05146  21868387.3744   21868393.2584   21868386.6924
      2879.1504       2243.4844        168.0004        170.0004
 -14758930.44848 -11487842.64446  21327522.5404   21327526.4364   21327522.1074
       -95.3704        -74.3144        182.0004        183.0004
   2012185.15846   2086016.27145  24022977.7974   24022984.8234   24022977.4434
     -2313.3374      -1802.5954        127.0004        134.0004
   2597811.05346   2039365.68545  24091319.5134   24091326.2074   24091319.3594
     -2678.6954      -2087.2884        133.0004        138.0004
  -5617439.74947  -4358270.86845  22703147.1104   22703152.8474   22703146.8654
      2080.1014       1620.8554        150.0004        152.0004
 -19656331.77548 -15302737.85247  20587787.0794   20587791.9424   20587787.0844
      -919.1314       -716.2044        190.0004        191.0004
 04  3 24  8  3  0.0000000  0  7G16G15G21G30G 6G 3G25
 -11066258.34848  -8479262.27546  21970040.2724   21970044.6834   21970039.9294
      1771.3224       1380.2424        167.0004        169.0004
 -11643293.94848  -9050377.89146  21851980.2924   21851986.2894   21851979.7324
      2868.8684       2235.4724        169.0004        169.0004
 -14755792.11348 -11485397.19946  21328119.7884   21328123.6184   21328119.3464
      -113.7334        -88.6234        182.0004        182.0004
   2081653.03146   2140147.00945  24036197.1204   24036203.9724   24036196.7804
     -2317.8284      -1806.1064        126.0004        134.0004
   2678151.90546   2101968.86845  24106608.0024   24106614.5624   24106607.4894
     -2677.2904      -2086.2004        132.0004        139.0004
  -5679716.64247  -4406798.29645  22691296.1354   22691301.9684   22691296.0064
      2071.7594       1614.3594        150.0004        153.0004
 -19628490.67748 -15281043.51947  20593085.1044   20593089.9844   20593085.1214
      -936.8194       -729.9884        190.0004        191.0004
 04  3 24  8  3 30.0000000  0  7G16G15G21G30G 6G 3G25
 -11119368.86548  -8520647.09646  21959933.7134   21959938.0824   21959933.3744
      1769.4404       1378.7814        167.0004        169.0004
 -11729201.78948  -9117319.05646  21835632.5434   21835638.5264   21835632.0234
      2858.3904       2227.3304        169.0004        171.0004
 -14752101.09848 -11482521.09746  21328822.2064   21328825.9954   21328821.7424
      -132.2874       -103.0794        182.0004        182.0004
   2151257.42146   2194384.12745  24049442.4434   24049449.2104   24049441.9384
     -2322.4574      -1809.6974        127.0004        135.0004
   2758451.27946   2164539.71845  24121888.2974   24121895.0984   24121888.1124
     -2675.9144      -2085.1274        131.0004        137.0004
  -5741742.52747  -4455130.16845  22679492.9684   22679498.6684   22679492.8454
      2063.3674       1607.8274        149.0004        152.0004
 -19600118.39548 -15258935.26547  20598484.2234   20598489.0584   20598484.2184
      -954.5944       -743.8344        190.0004        191.0004
 04  3 24  8  4  0.0000000  0  7G16G15G21G30G 6G 3G25
 -11172423.83548  -8561988.62746  21949837.6554   21949841.9604   21949837.3034
      1767.5074       1377.2634        166.0004        168.0004
 -11814795.10448  -9184015.13246  21819344.8384   21819350.6324   21819344.1814
      2847.8194       2219.0614        170.0004        172.0004
 -14747857.09648 -11479214.08746  21329629.8104   21329633.6424   21329629.3564
      -150.7124       -117.4314        182.0004        183.0004
   2220998.73146   2248727.88845  24062714.0654   24062721.0624   24062713.4284
     -2327.0794      -1813.3084        127.0004        135.0004
   2838708.89446   2227078.04745  24137160.2724   24137167.3924   24137160.4444
     -2674.6034      -2084.0984        131.0004        138.0004
  -5803517.42447  -4503266.43745  22667737.5854   22667743.1924   22667737.4764
      2054.9444       1601.2484        149.0004        153.0004
 -19571215.15548 -15236413.28247  20603984.3244   20603989.2124   20603984.3414
      -972.3064       -757.6354        190.0004        191.0004
 04  3 24  8  4 30.0000000  0  7G16G15G21G30G 6G 3G25
 -11225421.95348  -8603285.85946  21939752.4264   21939756.7804   21939752.1194
      1765.6304       1375.8314        167.0004        169.0004
 -11900070.74548  -9250463.67746  21803117.3914   21803123.1744   21803116.7694
      2837.2334       2210.8314        170.0004        172.0004
 -14743059.75448 -11475475.91346  21330542.6694   21330546.5784   21330542.2304
      -169.1594       -131.8014        182.0004        182.0004
   2290877.46346   2303178.76345  24076011.7174   24076018.7584   24076011.0444
     -2331.5974      -1816.8174        127.0004        134.0004
   2918923.90646   2289583.15945  24152424.9014   24152432.1744   24152424.9694
     -2673.1314      -2082.9514        132.0004        139.0004
  -5865040.74647  -4551206.69845  22656030.2274   22656035.9024   22656030.0614
      2046.5604       1594.7254        151.0004        154.0004
 -19541781.19148 -15213477.75447  20609585.4384   20609590.3214   20609585.4494
      -989.9664       -771.3984        190.0004        190.0004
 04  3 24  8  5  0.0000000  0  7G16G15G21G30G 6G 3G25
 -11278363.52848  -8644539.02546  21929677.9914   21929682.4054   21929677.7084
      1763.7064       1374.3154        168.0004        170.0004
 -11985026.92448  -9316663.28546  21786950.7984   21786956.4944   21786950.1664
      2826.4734       2202.4424        170.0004        171.0004
 -14737710.52348 -11471307.68946  21331560.5064   21331564.4804   21331560.1434
      -187.5644       -146.1534        182.0004        182.0004
   2360892.54346   2357735.88545  24089335.2574   24089342.2294   24089334.6924
     -2336.1494      -1820.3774        127.0004        134.0004
   2999094.24046   2352053.46045  24167680.8714   24167688.3044   24167680.9134
     -2671.5854      -2081.7514        132.0004        139.0004
  -5926313.75947  -4598951.91745  22644370.2814   22644376.0644   22644370.1924
      2038.2034       1588.2104        150.0004        152.0004
 -19511818.35348 -15190130.11547  20615287.2044   20615292.0534   20615287.2144
     -1007.6224       -785.1594        190.0004        190.0004
 04  3 24  8  5 30.0000000  0  7G16G15G21G30G 6G 3G25
 -11331246.86448  -8685746.80446  21919614.5844   21919619.0934   21919614.3114
      1761.8284       1372.8524        168.0004        170.0004
 -12069660.35848  -9382611.38846  21770845.5524   21770851.3074   21770844.9674
      2815.7134       2194.0564        171.0004        172.0004
 -14731808.34948 -11466708.58946  21332683.6654   21332687.6054   21332683.2684
      -205.9174       -160.4674        181.0004        182.0004
   2431044.69546   2412399.80045  24102684.9584   24102691.7634   24102684.1104
     -2340.6454      -1823.8694        127.0004        136.0004
   3079219.72446   2414488.80145  24182928.6824   24182935.9864   24182928.4284
     -2670.0464      -2080.5494        132.0004        138.0004
  -5987335.88147  -4646501.61645  22632758.1224   22632763.9314   22632757.9664
      2029.9274       1581.7644        149.0004        151.0004
 -19481326.70048 -15166370.40547  20621089.5674   20621094.4374   20621089.5874
     -1025.1624       -798.8264        190.0004        191.0004
 04  3 24  8  6  0.0000000  0  7G16G15G21G30G 6G 3G25
 -11384070.93948  -8726908.40746  21909562.4334   21909566.9854   21909562.1654
      1759.7044       1371.1994        168.0004        169.0004
 -12153968.20148  -9448305.80846  21754802.2594   21754808.0054   21754801.6964
      2804.6894       2185.4684        171.0004        172.0004
 -14725353.91348 -11461679.17346  21333911.8704   21333915.8474   21333911.5214
      -224.4554       -174.8994        181.0004        182.0004
   2501333.93646   2467170.56345  24116060.6324   24116067.3624   24116059.9154
     -2345.4134      -1827.5924        128.0004        134.0004
   3159299.28946   2476888.36545  24198167.2944   24198174.8814   24198167.1664
     -2668.6894      -2079.4894        132.0004        137.0004
  -6048107.22947  -4693855.92445  22621193.7044   22621199.4584   22621193.4834
      2021.3934       1575.1144        149.0004        152.0004
 -19450307.48148 -15142199.61047  20626992.3374   20626997.2094   20626992.3634
     -1042.8744       -812.6114        189.0004        190.0004
 04  3 24  8  6 30.0000000  0  7G16G15G21G30G 6G 3G25
 -11436834.92748  -8768023.20046  21899521.7774   21899526.3074   21899521.5534
      1757.8234       1369.7454        168.0004        170.0004
 -12237947.34148  -9513744.08946  21738821.5154   21738827.3374   21738820.9294
      2793.8234       2177.0134        171.0004        172.0004
 -14718346.33948 -11456218.72846  21335245.4264   21335249.3554   21335245.0974
      -242.7644       -189.1694        181.0004        183.0004
   2571760.82146   2522048.55545  24129462.5624   24129469.2924   24129461.9164
     -2349.8424      -1831.0494        128.0004        135.0004
   3239332.48946   2539251.82045  24213397.0634   24213404.7254   24213396.9504
     -2667.0094      -2078.1844        130.0004        136.0004
  -6108627.69047  -4741014.74045  22609677.0964   22609682.8484   22609676.9464
      2013.1714       1568.7024        150.0004        154.0004
 -19418760.79948 -15117617.80247  20632995.4644   20633000.3984   20632995.4824
     -1060.3084       -826.2194        189.0004        190.0004
 04  3 24  8  7  0.0000000  0  7G16G15G21G30G 6G 3G25
 -11489538.27348  -8809090.73346  21889492.6594   21889497.1934   21889492.4244
      1755.8144       1368.1754        168.0004        170.0004
 -12321595.99548  -9578924.84846  21722903.6214   21722909.5684   21722903.1354
      2782.7934       2168.4304        172.0004        172.0004
 -14710786.80448 -11450328.19646  21336683.9904   21336687.8884   21336683.6304
      -261.1764       -203.5104        181.0004        182.0004
   2642324.40346   2577033.07045  24142890.0394   24142897.0744   24142889.4514
     -2354.3484      -1834.5534        129.0004        137.0004
   3319317.64846   2601577.80445  24228618.0744   24228625.3594   24228617.8984
     -2665.3144      -2076.8704        130.0004        136.0004
  -6168898.12347  -4787978.71245  22598208.0424   22598213.8634   22598207.8954
      2004.8974       1562.2464        150.0004        154.0004
 -19386688.32848 -15092626.29447  20639098.6744   20639103.6114   20639098.6794
     -1077.8214       -839.8654        189.0004        190.0004
 04  3 24  8  7 30.0000000  0  7G16G15G21G30G 6G 3G25
 -11542179.13448  -8850109.58846  21879475.4284   21879479.9544   21879475.2114
      1753.6044       1366.4534        168.0004        169.0004
 -12404910.39848  -9643845.15246  21707049.4164   21707055.3234   21707048.9014
      2771.5064       2159.6224        172.0004        173.0004
 -14702674.32348 -11444006.78446  21338227.7514   21338231.6314   21338227.4104
      -279.6604       -217.9354        181.0004        182.0004
   2713025.66746   2632124.87945  24156343.7604   24156351.0124   24156343.5484
     -2359.1634      -1838.3014        127.0004        135.0004
   3399254.61546   2663866.26945  24243829.3084   24243836.9714   24243829.6834
     -2663.8274      -2075.7054        129.0004        136.0004
  -6228917.85247  -4834747.33245  22586786.7634   22586792.4324   22586786.6074
      1996.4494       1555.6734        151.0004        154.0004
 -19354090.23948 -15067225.21647  20645301.9114   20645306.8494   20645301.9104
     -1095.4004       -853.5604        189.0004        190.0004
 04  3 24  8  8  0.0000000  0  7G16G15G21G30G 6G 3G25
 -11594756.91348  -8891079.28546  21869470.2294   21869474.6904   21869469.9884
      1751.5194       1364.8204        169.0004        170.0004
 -12487888.02648  -9708503.03146  21691259.2804   21691265.1964   21691258.7804
      2760.2714       2150.8694        172.0004        173.0004
 -14694009.37748 -11437254.89246  21339876.6094   21339880.5104   21339876.3054
      -298.0264       -232.2304        181.0004        182.0004
   2783864.53046   2687323.89345  24169824.0214   24169831.4384   24169823.8444
     -2363.6004      -1841.7614        127.0004        135.0004
   3479142.47646   2726116.45145  24259031.5934   24259039.1844   24259031.5954
     -2662.0994      -2074.3604        129.0004        136.0004
  -6288687.05947  -4881320.74145  22575413.0084   22575418.6724   22575412.8504
      1988.1444       1549.2004        151.0004        154.0004
 -19320967.52248 -15041415.32747  20651604.9544   20651609.9414   20651604.9854
     -1112.8464       -867.1554        189.0004        190.0004
 04  3 24  8  8 30.0000000  0  7G16G15G21G30G 6G 3G25
 -11647270.46948  -8931998.94146  21859477.1764   21859481.7134   21859476.9584
      1749.3984       1363.1564        169.0004        171.0004
 -12570525.98948  -9772896.23946  21675533.7964   21675539.6884   21675533.2544
      2748.9394       2142.0254        172.0004        174.0004
 -14684792.33248 -11430072.79146  21341630.6004   21341634.5134   21341630.2324
      -316.4254       -246.5504        181.0004        182.0004
   2854841.04946   2742630.15945  24183330.1874   24183337.6534   24183330.1044
     -2368.1264      -1845.2924        128.0004        134.0004
   3558980.30146   2788327.65945  24274224.4424   24274231.7924   24274224.3444
     -2660.4384      -2073.0674        128.0004        136.0004
  -6348205.86147  -4927699.01345  22564086.9294   22564092.5854   22564086.7404
      1979.7904       1542.6874        151.0004        154.0004
 -19287320.77948 -15015197.11547  20658007.7594   20658012.7594   20658007.7684
     -1130.2344       -880.6944        189.0004        190.0004
 04  3 24  8  9  0.0000000  0  7G16G15G21G30G 6G 3G25
 -11699718.85648  -8972867.81446  21849496.6284   21849501.0934   21849496.3874
      1747.1414       1361.4004        170.0004        171.0004
 -12652821.81548  -9837022.85446  21659873.5384   21659879.3354   21659872.9254
      2737.4054       2133.0404        173.0004        175.0004
 -14675023.15748 -11422460.46046  21343489.5404   21343493.5004   21343489.2334
      -334.8924       -260.9624        181.0004        182.0004
   2925955.26646   2798043.72745  24196862.8624   24196870.7824   24196862.8794
     -2372.8094      -1848.9394        128.0004        135.0004
   3638767.07246   2850499.07645  24289407.4284   24289414.9544   24289407.0804
     -2658.8184      -2071.7954        126.0004        135.0004
  -6407474.42747  -4973882.29945  22552808.5164   22552814.2054   22552808.3224
      1971.4114       1536.1644        152.0004        156.0004
 -19253151.27048 -14988571.54447  20664510.0094   20664515.0004   20664509.9794
     -1147.7394       -894.3474        189.0004        190.0004
 04  3 24  8  9 30.0000000  0  7G16G15G21G30G 6G 3G25
 -11752100.65348  -9013684.79746  21839528.7274   21839533.2174   21839528.4804
      1744.8204       1359.5964        170.0004        172.0004
 -12734772.31748  -9900880.37346  21644278.8174   21644284.6554   21644278.2644
      2725.7894       2123.9944        173.0004        174.0004
 -14664701.88648 -11414417.91446  21345453.6344   21345457.5524   21345453.2864
      -353.3734       -275.3454        181.0004        182.0004
   2997207.58646   2853564.89845  24210421.4364   24210429.7884   24210422.1094
     -2377.4974      -1852.6014        127.0004        134.0004
   3718502.91846   2912630.79845  24304580.9424   24304588.3344   24304580.1674
     -2657.1314      -2070.4904        125.0004        133.0004
  -6466492.55547  -5019870.45745  22541577.8434   22541583.3944   22541577.5744
      1962.9214       1529.5384        152.0004        156.0004
 -19218459.33248 -14961538.89047  20671111.6084   20671116.6914   20671111.6494
     -1165.2234       -907.9654        189.0004        190.0004
 04  3 24  8 10  0.0000000  0  7G16G15G21G30G 6G 3G25
 -11804415.81748  -9054449.86046  21829573.4424   21829577.9504   21829573.1864
      1742.8034       1358.0414        170.0004        172.0004
 -12816375.63448  -9964467.37846  21628750.2714   21628756.0554   21628749.6384
      2714.3234       2115.0664        173.0004        175.0004
 -14653829.69348 -11405946.09846  21347522.5864   21347526.4934   21347522.1974
      -371.5164       -289.4824        181.0004        182.0004
   3068597.17446   2909193.05345  24224006.1524   24224014.7834   24224007.0784
     -2381.9254      -1856.0414        125.0004        132.0004
   3798185.40146   2974720.94845  24319743.7524   24319751.0824   24319743.1874
     -2655.1504      -2068.9394        124.0004        133.0004
  -6525261.22147  -5065664.21645  22530394.4364   22530400.0064   22530394.2094
      1954.8474       1523.2604        151.0004        153.0004
 -19183247.15548 -14934100.85747  20677812.2854   20677817.3864   20677812.3294
     -1182.3354       -921.3164        189.0004        189.0004
 04  3 24  8 10 30.0000000  0  7G16G15G21G30G 6G 3G25
 -11856662.90448  -9095161.87546  21819631.1534   21819635.7224   21819630.9254
      1740.3384       1356.1124        171.0004        172.0004
 -12897628.74948 -10027781.46946  21613288.2844   21613294.1054   21613287.6644
      2702.4684       2105.8074        173.0004        176.0004
 -14642406.31048 -11397044.76346  21349696.3304   21349700.3194   21349696.0104
      -390.0604       -303.9344        181.0004        182.0004
   3140124.22046   2964928.27144  24237617.8794   24237626.1154   24237618.1734
     -2386.7104      -1859.7674        125.0004        131.0004
   3877814.23746   3036769.29745  24334896.9134   24334903.7864   24334896.1304
     -2653.5264      -2067.6744        125.0004        134.0004
  -6583780.56347  -5111263.69845  22519258.5334   22519264.1424   22519258.3374
      1946.3954       1516.6814        151.0004        155.0004
 -19147515.47248 -14906258.01247  20684611.7994   20684616.9384   20684611.8714
     -1199.7864       -934.9004        189.0004        190.0004
 04  3 24  8 11  0.0000000  0  7G16G15G21G30G 6G 3G25
 -11908840.58448  -9135819.81646  21809702.0654   21809706.5574   21809701.8204
      1738.0914       1354.3534        170.0004        171.0004
 -12978528.54848 -10090820.27146  21597893.4994   21597899.3924   21597892.9384
      2690.7614       2096.6974        174.0004        175.0004
 -14630431.73448 -11387713.94346  21351974.9614   21351979.0344   21351974.6794
      -408.3074       -318.1574        181.0004        182.0004
   3211789.18946   3020770.98445  24251255.5624   24251263.6214   24251255.8434
     -2391.1324      -1863.2244        124.0004        132.0004
   3957388.97746   3098775.48845  24350039.5534   24350046.9494   24350038.9344
     -2651.5664      -2066.1614        125.0004        134.0004
  -6642050.09347  -5156668.52845  22508170.2344   22508176.0364   22508170.0674
      1938.1424       1510.2314        152.0004        156.0004
 -19111264.77248 -14878010.73847  20691510.1944   20691515.2284   20691510.2374
     -1216.9714       -948.2904        189.0004        190.0004
 04  3 24  8 11 30.0000000  0  7G16G15G21G30G 6G 3G25
 -11960947.53148  -9176422.64246  21799786.4734   21799790.9134   21799786.2154
      1735.7344       1352.5294        170.0004        171.0004
 -13059072.40848 -10153581.71846  21582566.4404   21582572.4444   21582565.9584
      2678.8724       2087.4394        174.0004        175.0004
 -14617905.99548 -11377953.63746  21354358.5694   21354362.6254   21354358.2864
      -426.7024       -332.5034        181.0004        182.0004
   3283592.29346   3076721.36045  24264918.9904   24264927.3084   24264919.7174
     -2395.7584      -1866.8134        125.0004        132.0004
   4036909.01246   3160739.09845  24365171.6174   24365179.1984   24365171.1834
     -2649.7334      -2064.7244        125.0004        133.0004
  -6700069.72647  -5201878.63845  22497129.4604   22497135.3084   22497129.2984
      1929.8264       1503.7644        152.0004        155.0004
 -19074496.32348 -14849360.02247  20698507.0114   20698512.0494   20698507.0204
     -1234.2364       -961.7474        189.0004        190.0004
 04  3 24  8 12  0.0000000  0  7G16G15G21G30G 6G 3G25
 -12012982.69748  -9216969.52146  21789884.5174   21789888.9354   21789884.2304
      1733.2484       1350.5814        170.0004        172.0004
 -13139257.36848 -10216063.50046  21567307.7754   21567313.7064   21567307.2514
      2666.8014       2078.0254        174.0004        175.0004
 -14604829.37048 -11367764.06646  21356846.9584   21356851.0104   21356846.6534
      -445.0874       -346.8034        181.0004        181.0004
   3355533.72846   3132779.47645  24278609.3854   24278617.3954   24278609.7374
     -2400.3854      -1870.4254        125.0004        135.0004
   4116373.59446   3222659.44244  24380293.3774   24380300.7304   24380293.0054
     -2647.9954      -2063.3694        124.0004        131.0004
  -6757839.74547  -5246894.23845  22486136.1874   22486141.9234   22486135.9254
      1921.4594       1497.2474        152.0004        156.0004
 -19037210.68148 -14820306.29747  20705602.2284   20705607.2924   20705602.2734
     -1251.4984       -975.1824        189.0004        190.0004
 04  3 24  8 12 30.0000000  0  7G16G15G21G30G 6G 3G25
 -12064945.75148  -9257460.20746  21779996.3424   21780000.6544   21779996.0334
      1730.9394       1348.7844        171.0004        171.0004
 -13219081.16148 -10278263.83846  21552117.7274   21552123.7154   21552117.2684
      2654.8014       2068.6854        174.0004        176.0004
 -14591203.17148 -11357146.25446  21359439.9624   21359444.0004   21359439.6704
      -463.3014       -361.0094        181.0004        182.0004
   3427612.91146   3188944.94645  24292326.3314   24292333.4914   24292326.0954
     -2404.8774      -1873.9224        125.0004        133.0004
   4195781.65146   3284535.77845  24395404.1964   24395411.8744   24395403.6114
     -2645.9574      -2061.7724        124.0004        132.0004
  -6815360.94047  -5291715.94745  22475190.2884   22475195.9344   22475190.0574
      1913.2984       1490.8824        153.0004        155.0004
 -18999409.37048 -14790850.75447  20712795.5594   20712800.6564   20712795.6024
     -1268.5744       -988.4894        189.0004        189.0004
 04  3 24  8 13  0.0000000  0  7G16G15G21G30G 6G 3G25
 -12116834.74448  -9297893.20146  21770122.1524   21770126.5134   21770121.8294
      1728.3494       1346.7754        171.0004        172.0004
 -13298540.54348 -10340180.23046  21536997.2444   21537003.0864   21536996.6764
      2642.5284       2059.1114        175.0004        177.0004
 -14577027.12148 -11346099.98346  21362137.6334   21362141.6244   21362137.2624
      -481.7514       -375.4074        181.0004        182.0004
   3499830.34446   3245218.13745  24306069.3554   24306075.9954   24306068.4224
     -2409.5224      -1877.5454        124.0004        133.0004
   4275132.65246   3346367.65145  24410504.0944   24410511.7364   24410503.7744
     -2644.1164      -2060.3504        124.0004        133.0004
  -6872632.96347  -5336343.49445  22464291.7364   22464297.4784   22464291.4614
      1904.8744       1484.3244        152.0004        155.0004
 -18961092.95248 -14760993.83047  20720086.9934   20720092.0424   20720087.0134
     -1285.8034      -1001.9154        189.0004        189.0004
 04  3 24  8 13 30.0000000  0  7G16G15G21G30G 6G 3G25
 -12168649.58348  -9338268.39946  21760262.1374   21760266.4964   21760261.8354
      1725.9464       1344.8914        171.0004        172.0004
 -13377633.80248 -10401811.33746  21521946.2214   21521952.1074   21521945.6244
      2630.3194       2049.5944        175.0004        176.0004
 -14562302.20848 -11334626.03646  21364939.6624   21364943.7234   21364939.3314
      -499.9404       -389.5564        180.0004        182.0004
   3572185.23846   3301598.41645  24319837.8334   24319845.3604   24319836.8624
     -2414.2114      -1881.1914        123.0004        132.0004
   4354425.01146   3408153.79844  24425592.9954   24425600.5714   24425592.6474
     -2642.0944      -2058.7684        124.0004        131.0004
  -6929656.80947  -5380777.66645  22453440.4294   22453446.1094   22453440.1404
      1896.6684       1477.9204        152.0004        155.0004
 -18922263.49948 -14730737.13747  20727476.0124   20727481.0544   20727476.0504
     -1302.8234      -1015.1784        189.0004        189.0004
 04  3 24  8 14  0.0000000  0  7G16G15G21G30G 6G 3G25
 -12220388.10948  -9378584.13746  21750416.6474   21750421.0324   21750416.2964
      1723.3714       1342.8984        171.0004        173.0004
 -13456357.24048 -10463154.26846  21506965.6804   21506971.5014   21506965.0784
      2617.9454       2039.9824        175.0004        176.0004
 -14547028.09648 -11322724.13646  21367846.2624   21367850.3274   21367845.8924
      -518.2704       -403.8424        180.0004        182.0004
   3644678.42746   3358086.49444  24333632.3634   24333640.3174   24333632.4194
     -2418.7374      -1884.7244        122.0004        131.0004
   4433659.04946   3469894.55245  24440670.8434   24440678.8434   24440670.5454
     -2640.1014      -2057.2194        125.0004        132.0004
  -6986431.53347  -5425017.70145  22442636.5474   22442642.1804   22442636.3294
      1888.3814       1471.4704        153.0004        156.0004
 -18882921.24048 -14700080.85247  20734962.6614   20734967.6774   20734962.6814
     -1319.9474      -1028.5304        189.0004        190.0004
 04  3 24  8 14 30.0000000  0  7G16G15G21G30G 6G 3G25
 -12272050.22348  -9418840.33046  21740585.7134   21740590.0854   21740585.3804
      1720.6324       1340.7564        171.0004        172.0004
 -13534708.93548 -10524207.52046  21492055.8344   21492061.6784   21492055.2574
      2605.3644       2030.1544        175.0004        176.0004
 -14531205.98348 -11310395.22546  21370857.1094   21370861.1964   21370856.7364
      -536.6744       -418.1814        180.0004        181.0004
   3717309.29346   3414681.81044  24347453.6874   24347461.3594   24347453.8144
     -2423.3834      -1888.3494        121.0004        129.0004
   4512833.10446   3531588.53845  24455737.3174   24455745.1054   24455737.2574
     -2638.2744      -2055.7974        126.0004        135.0004
  -7042958.31947  -5469064.53245  22431879.9084   22431885.5414   22431879.6944
      1880.0014       1464.9294        154.0004        158.0004
 -18843068.13648 -14669026.51047  20742546.4894   20742551.5204   20742546.4844
     -1337.0454      -1041.8514        189.0004        189.0004
                            4  1
RINEX FILE SPLICE; other post-header comments skipped       COMMENT
 07  7 18  8 15  0.0000000  0  7G16G15G21G30G 6G 3G25
 -12323633.46848  -9459035.07446  21730769.7464   21730774.1434   21730769.4364
      1718.1284       1338.7984        171.0004        172.0004
 -13612685.25648 -10584968.28446  21477217.3994   21477223.2434   21477216.8734
      2592.9254       2020.4604        175.0004        177.0004
 -14514835.25448 -11297638.81646  21373972.3954   21373976.4244   21373972.0324
      -554.8004       -432.3184        180.0004        181.0004
   3790078.74946   3471385.12744  24361300.7814   24361309.3764   24361301.1644
     -2427.9804      -1891.9134        119.0004        128.0004
   4591947.52946   3593236.05845  24470792.5304   24470799.9034   24470792.2144
     -2636.2314      -2054.1994        125.0004        134.0004
  -7099236.42747  -5512917.59345  22421170.6144   22421176.3374   22421170.2874
      1871.7884       1458.5304        155.0004        158.0004
 -18802704.57448 -14637574.40347  20750227.4584   20750232.4974   20750227.4314
     -1353.9544      -1055.0294        189.0004        189.0004
 07  7 18  8 15 30.0000000  0  7G16G15G21G30G 6G 3G25
 -12375137.99948  -9499168.47546  21720968.7354   21720973.1214   21720968.3914
      1715.3934       1336.6774        171.0004        172.0004
 -13690284.88248 -10645435.51746  21462450.6114   21462456.5434   21462450.1154
      2580.2424       2010.5794        176.0004        177.0004
 -14497917.59348 -11284456.23446  21377191.7754   21377195.7604   21377191.3744
      -573.1134       -446.5854        180.0004        181.0004
   3862985.49846   3528195.41744  24375173.8794   24375183.8034   24375175.3424
     -2432.7094      -1895.6124        117.0004        126.0004
   4671000.77946   3654835.91945  24485835.8324   24485843.3654   24485835.5904
     -2634.2304      -2052.6424        126.0004        133.0004
  -7155267.23047  -5556577.95445  22410508.2004   22410513.9784   22410507.9044
      1863.4824       1452.0594        154.0004        156.0004
 -18761832.59448 -14605726.13647  20758005.1104   20758010.2014   20758005.1004
     -1370.9404      -1068.2574        189.0004        189.0004
 07  7 18  8 16  0.0000000  0  7G16G15G21G30G 6G 3G25
 -12426561.80648  -9539238.97246  21711183.1244   21711187.4864   21711182.8014
      1712.8004       1334.6424        172.0004        173.0004
 -13767504.32448 -10705606.49946  21447756.2504   21447762.1834   21447755.7744
      2567.5994       2000.7184        176.0004        178.0004
 -14480452.62748 -11270847.18246  21380515.2894   21380519.2144   21380514.8514
      -591.2954       -460.7344        180.0004        180.0004
   3936030.67846   3585113.57544  24389074.5444   24389084.3594   24389075.3254
     -2437.1054      -1899.0434        115.0004        125.0004
   4749992.85446   3716388.08845  24500867.8544   24500875.1024   24500867.5934
     -2632.1074      -2050.9874        127.0004        134.0004
  -7211050.04247  -5600045.07645  22399893.0014   22399898.7704   22399892.7504
      1855.2794       1445.6664        153.0004        156.0004
 -18720452.47248 -14573481.89947  20765879.5254   20765884.5824   20765879.5384
     -1387.7984      -1081.4134        189.0004        190.0004
 07  7 18  8 16 30.0000000  0  7G16G15G21G30G 6G 3G25
 -12477903.65248  -9579245.61246  21701413.0514   21701417.4664   21701412.7344
      1710.0604       1332.5134        171.0004        173.0004
 -13844340.76848 -10765479.05246  21433134.7554   21433140.6644   21433134.2644
      2554.8594       1990.7974        176.0004        178.0004
 -14462440.92048 -11256812.09446  21383942.7454   21383946.7184   21383942.3494
      -609.4434       -474.8974        180.0004        181.0004
   4009214.09446   3642139.43444  24403000.9904   24403010.3334   24403002.1384
     -2441.5614      -1902.5104        113.0004        126.0004
   4828922.97346   3777891.96845  24515887.9784   24515894.9404   24515887.4964
     -2629.8754      -2049.2534        124.0004        132.0004
  -7266584.93447  -5643318.99645  22389325.0874   22389330.7934   22389324.8804
      1847.0724       1439.2704        154.0004        157.0004
 -18678565.58848 -14540842.80347  20773850.3714   20773855.4334   20773850.3644
     -1404.6084      -1094.4944        189.0004        189.0004
 07  7 18  8 17  0.0000000  0  7G16G15G21G30G 6G 3G25
 -12529163.71948  -9619188.52646  21691658.5564   21691662.9504   21691658.2804
      1707.2284       1330.3124        171.0004        173.0004
 -13920792.87448 -10825052.11346  21418586.5314   21418592.2814   21418585.9774
      2541.8854       1980.6944        177.0004        178.0004
 -14443884.03948 -11242352.19346  21387474.0204   21387477.9724   21387473.6224
      -627.7154       -489.1284        180.0004        181.0004
   4082534.66446   3699272.18444  24416953.0104   24416962.4814   24416953.7494
     -2446.3954      -1906.2754        111.0004        122.0004
   4907789.02546   3839345.94345  24530895.7164   24530902.5914   24530895.1124
     -2627.8804      -2047.6934        124.0004        132.0004
  -7321873.45947  -5686400.95645  22378804.0924   22378809.8694   22378803.8664
      1838.7534       1432.8024        156.0004        159.0004
 -18636174.42848 -14507810.74947  20781917.1494   20781922.2264   20781917.1644
     -1421.4834      -1107.6574        188.0004        189.0004
 07  7 18  8 17 30.0000000  0  7G16G15G21G30G 6G 3G25
 -12580339.06748  -9659065.42346  21681920.2684   21681924.6154   21681919.9914
      1704.3854       1328.0894        172.0004        174.0004
 -13996856.44248 -10884322.42546  21404112.0664   21404117.8454   21404111.5114
      2528.9084       1970.5844        177.0004        178.0004
 -14424781.03248 -11227466.75046  21391109.1384   21391113.1574   21391108.8124
      -645.9004       -503.2924        180.0004        181.0004
   4155993.86846   3756512.97744  24430932.4604   24430940.7104   24430932.4664
     -2450.9714      -1909.8474        115.0004        126.0004
   4986592.31246   3900751.00644  24545891.3454   24545898.1414   24545891.1804
     -2625.7474      -2046.0344        122.0004        131.0004
  -7376914.10247  -5729289.75345  22368330.2914   22368336.1604   22368330.1104
      1830.4974       1426.3594        157.0004        159.0004
 -18593278.51648 -14474385.39447  20790079.9954   20790085.0774   20790079.9894
     -1438.2964      -1120.7494        188.0004        189.0004
 07  7 18  8 18  0.0000000  0  7G16G15G21G30G 6G 3G25
 -12631429.68748  -9698876.29746  21672198.0244   21672202.3934   21672197.7654
      1701.5664       1325.8974        172.0004        173.0004
 -14072529.96348 -10943288.79246  21389711.8864   21389717.6124   21389711.3444
      2515.8834       1960.4184        177.0004        179.0004
 -14405133.67748 -11212157.13246  21394847.9354   21394851.9664   21394847.6074
      -664.0094       -517.3844        180.0004        180.0004
   4229590.60546   3813860.91044  24444937.7064   24444945.9654   24444938.0084
     -2455.4404      -1913.3204        114.0004        125.0004
   5065330.72046   3962105.52244  24560874.8334   24560881.5564   24560874.8424
     -2623.5894      -2044.3524        122.0004        131.0004
  -7431708.20147  -5771986.47145  22357903.1774   22357909.0534   22357903.0684
      1822.3294       1420.0104        156.0004        158.0004
 -18549880.40848 -14440568.71047  20798338.4304   20798343.4464   20798338.4214
     -1455.0024      -1133.7634        188.0004        188.0004
 07  7 18  8 18 30.0000000  0  7G16G15G21G30G 6G 3G25
 -12682433.33048  -9738619.39846  21662492.2934   21662496.6874   21662492.0534
      1698.4924       1323.5064        172.0004        173.0004
 -14147809.89848 -11001948.47446  21375386.5804   21375392.3074   21375386.0664
      2502.5864       1950.0664        178.0004        179.0004
 -14384941.62148 -11196423.06346  21398690.3334   21398694.3814   21398690.0204
      -682.3024       -531.6794        180.0004        181.0004
   4303325.92946   3871316.83644  24458969.2464   24458977.4964   24458970.0534
     -2460.3494      -1917.1424        114.0004        125.0004
   5144004.70746   4023409.84544  24575846.3624   24575852.9234   24575846.2824
     -2621.5144      -2042.7314        121.0004        130.0004
  -7486255.15647  -5814490.56445  22347523.2424   22347529.1494   22347523.0604
      1813.9504       1413.4714        156.0004        159.0004
 -18505980.42948 -14406360.95247  20806692.3324   20806697.3294   20806692.3134
     -1471.8624      -1146.8974        187.0004        188.0004
 07  7 18  8 19  0.0000000  0  7G16G15G21G30G 6G 3G25
 -12733349.58448  -9778294.39546  21652803.2744   21652807.6584   21652803.0044
      1695.7204       1321.3424        172.0004        174.0004
 -14222694.22948 -11060299.89546  21361136.5544   21361142.3014   21361136.0684
      2489.5124       1939.8764        178.0004        180.0004
 -14364206.13848 -11180265.55746  21402636.2004   21402640.2514   21402635.8614
      -700.2174       -545.6184        180.0004        180.0004
   4377198.85946   3928879.99544  24473026.8064   24473035.4094   24473027.4114
     -2464.6284      -1920.4844        116.0004        127.0004
   5222612.99746   4084662.96644  24590804.7144   24590811.7244   24590804.7344
     -2619.1424      -2040.8924        120.0004        130.0004
  -7540555.97547  -5856802.88945  22337190.1484   22337196.0994   22337189.9734
      1805.9284       1407.2184        156.0004        159.0004
 -18461580.69148 -14371763.78147  20815141.2934   20815146.3654   20815141.3064
     -1488.3174      -1159.7244        187.0004        188.0004
 07  7 18  8 19 30.0000000  0  7G16G15G21G30G 6G 3G25
 -12784177.34848  -9817900.44746  21643131.0004   21643135.4404   21643130.7764
      1692.7404       1319.0224        172.0004        174.0004
 -14297180.53548 -11118341.15446  21346962.3334   21346968.0054   21346961.8604
      2476.1874       1929.4944        178.0004        180.0004
 -14342927.88448 -11163685.11146  21406685.3734   21406689.4244   21406685.0024
      -718.3444       -559.7574        180.0004        180.0004
   4451209.38646   3986550.33644  24487110.9034   24487119.0214   24487111.3384
     -2469.3634      -1924.1874        118.0004        127.0004
   5301155.07946   4145864.49444  24605751.0114   24605758.4354   24605751.1574
     -2617.1074      -2039.2984        120.0004        129.0004
  -7594611.08447  -5898923.74145  22326903.8294   22326909.7694   22326903.6124
      1797.6994       1400.7944        156.0004        159.0004
 -18416682.59348 -14336778.28046  20823685.1494   20823690.1924   20823685.1724
     -1504.9284      -1172.6774        187.0004        187.0004
 07  7 18  8 20  0.0000000  0  7G16G15G21G30G 6G 3G25
 -12834914.88648  -9857436.18446  21633476.0034   21633480.4864   21633475.7504
      1689.7614       1316.6994        173.0004        174.0004
 -14371266.11048 -11176070.16746  21332864.3774   21332869.9834   21332863.8314
      2462.8664       1919.1094        179.0004        180.0004
 -14321107.50248 -11146682.22846  21410837.6464   21410841.7374   21410837.3104
      -736.3304       -573.7584        180.0004        180.0004
   4525357.73346   4044328.12744  24501221.1624   24501229.4184   24501221.6654
     -2473.8514      -1927.6704        117.0004        127.0004
   5379630.42346   4207013.99144  24620684.8174   24620691.9334   24620684.5244
     -2614.6984      -2037.4194        120.0004        130.0004
  -7648420.50247  -5940853.15145  22316664.2784   22316670.1804   22316664.0134
      1789.6114       1394.5044        157.0004        159.0004
 -18371287.04048 -14301405.14646  20832323.6664   20832328.6794   20832323.6744
     -1521.4164      -1185.5254        187.0004        187.0004
 07  7 18  8 20 30.0000000  0  7G16G15G21G30G 6G 3G25
 -12885561.25548  -9896900.89646  21623838.3434   21623842.7704   21623838.0624
      1686.7864       1314.3714        172.0004        173.0004
 -14444948.72148 -11233485.18546  21318843.0104   21318848.6484   21318842.5134
      2449.4674       1908.6804        179.0004        180.0004
 -14298745.85848 -11129257.58346  21415092.8654   21415097.0024   21415092.5544
      -754.3034       -587.7634        179.0004        180.0004
   4599643.66946   4102213.06244  24515357.7794   24515365.4974   24515357.6394
     -2478.4384      -1931.2564        115.0004        126.0004
   5458037.72546   4268110.49944  24635604.7244   24635612.4234   24635604.7364
     -2612.3574      -2035.5974        120.0004        130.0004
  -7701984.69347  -5982591.47845  22306471.3254   22306477.2654   22306471.1164
      1781.4804       1388.1784        157.0004        159.0004
 -18325395.78848 -14265645.75546  20841056.5274   20841061.4784   20841056.4914
     -1537.8844      -1198.3484        186.0004        187.0004
 07  7 18  8 21  0.0000000  0  7G16G15G21G30G 6G 3G25
 -12936115.55248  -9936293.85246  21614218.1304   21614222.6284   21614217.8924
      1683.5514       1311.8504        173.0004        175.0004
 -14518225.83748 -11290584.21946  21304898.8604   21304904.4654   21304898.3014
      2435.7344       1897.9844        179.0004        180.0004
 -14275844.10448 -11111412.07646  21419450.9024   21419455.0564   21419450.6094
      -772.4154       -601.8774        179.0004        180.0004
   4674066.82946   4160204.96344  24529520.2104   24529527.6714   24529520.5634
     -2483.1474      -1934.9154        114.0004        124.0004
   5536377.01646   4329153.97244  24650512.4844   24650520.0354   24650512.1784
     -2610.3084      -2034.0034        120.0004        130.0004
  -7755304.05947  -6024139.02445  22296324.7944   22296330.9454   22296324.7034
      1773.1584       1381.6854        156.0004        158.0004
 -18279010.40648 -14229501.33146  20849883.3884   20849888.3644   20849883.3714
     -1554.4594      -1211.2604        186.0004        186.0004
 07  7 18  8 21 30.0000000  0  7G16G15G21G30G 6G 3G25
 -12986576.11248  -9975613.76846  21604615.8304   21604620.3194   21604615.5734
      1680.5724       1309.5344        173.0004        175.0004
 -14591094.76448 -11347365.19546  21291032.3964   21291037.9814   21291031.8324
      2422.2534       1887.4814        180.0004        181.0004
 -14252402.38448 -11093145.82046  21423911.7304   21423915.8564   21423911.4404
      -790.2934       -615.8164        179.0004        180.0004
   4748627.54146   4218304.07444  24543708.7684   24543716.0334   24543708.4924
     -2487.5464      -1938.3474        114.0004        123.0004
   5614647.60046   4390143.94445  24665406.5684   24665414.3224   24665406.5044
     -2607.7144      -2031.9724        122.0004        132.0004
  -7808378.32547  -6065495.59045  22286225.1334   22286231.0634   22286225.0874
      1765.1544       1375.4464        156.0004        159.0004
 -18232132.24448 -14192972.91846  20858803.9614   20858809.0104   20858803.9524
     -1570.7274      -1223.9394        186.0004        186.0004
 07  7 18  8 22  0.0000000  0  7G16G15G21G30G 6G 3G25
 -13036941.43848 -10014859.47846  21595031.5504   21595036.0994   21595031.3124
      1677.3334       1307.0074        173.0004        174.0004
 -14663552.64748 -11403825.86846  21277244.0414   21277249.7414   21277243.4934
      2408.5124       1876.7644        180.0004        181.0004
 -14228421.00948 -11074459.04946  21428475.2534   21428479.3704   21428474.9254
      -808.2674       -629.8164        179.0004        180.0004
   4823326.03046   4276510.49244  24557923.4524   24557931.1114   24557923.3694
     -2492.1434      -1941.9274        113.0004        124.0004
   5692849.29446   4451080.21744  24680288.2544   24680295.8644   24680288.0284
     -2605.4324      -2030.2014        121.0004        129.0004
  -7861207.86747  -6106661.44745  22276172.0744   22276177.9064   22276171.9984
      1757.0404       1369.1164        156.0004        159.0004
 -18184762.31648 -14156061.31346  20867818.1544   20867823.2504   20867818.1424
     -1587.1124      -1236.7264        185.0004        186.0004
 07  7 18  8 22 30.0000000  0  7G16G15G21G30G 6G 3G25
 -13087210.67648 -10054030.32846  21585465.6924   21585470.1454   21585465.4564
      1673.8804       1304.3204        173.0004        174.0004
 -14735597.42448 -11459964.64746  21263534.3654   21263540.1084   21263533.8604
      2394.4474       1865.8144        180.0004        181.0004
 -14203901.31448 -11055352.81046  21433141.2404   21433145.2894   21433140.9014
      -826.4264       -643.9624        179.0004        180.0004
   4898161.74146   4334823.84444  24572164.0244   24572172.6024   24572164.3494
     -2497.0134      -1945.7094        116.0004        129.0004
   5770980.78446   4511961.77444  24695156.5274   24695163.5924   24695155.8024
     -2603.2084      -2028.4674        119.0004        129.0004
  -7913793.28247  -6147637.07745  22266165.3934   22266171.1464   22266165.3324
      1748.6224       1362.5714        157.0004        160.0004
 -18136902.53448 -14118768.00446  20876925.5814   20876930.6844   20876925.5854
     -1603.6334      -1249.5884        185.0004        186.0004
 07  7 18  8 23  0.0000000  0  7G16G15G21G30G 6G 3G25
 -13137382.24748 -10093125.05546  21575918.3944   21575922.8344   21575918.1154
      1670.6294       1301.7974        174.0004        175.0004
 -14807226.22448 -11515779.28346  21249903.8614   21249909.5524   21249903.3334
      2380.5144       1854.9464        180.0004        182.0004
 -14178843.94548 -11035827.60646  21437909.5154   21437913.5554   21437909.1654
      -844.3204       -657.9174        179.0004        180.0004
   4973134.90146   4393244.30244  24586431.3054   24586440.1744   24586430.9074
     -2501.5514      -1949.2434        111.0004        123.0004
   5849042.18646   4572788.77444  24710010.7844   24710017.9784   24710010.3264
     -2600.9824      -2026.7354        119.0004        127.0004
  -7966134.64447  -6188422.54645  22256205.1424   22256210.9634   22256205.0844
      1740.5284       1356.2604        157.0004        159.0004
 -18088554.09248 -14081093.93446  20886126.0314   20886131.1514   20886126.0044
     -1619.8534      -1262.2284        185.0004        186.0004
 07  7 18  8 23 30.0000000  0  7G16G15G21G30G 6G 3G25
 -13187454.81448 -10132142.63246  21566389.9194   21566394.3434   21566389.6354
      1667.4734       1299.3284        174.0004        175.0004
 -14878436.47148 -11571267.78746  21236353.0434   21236358.6774   21236352.4894
      2366.7294       1844.2144        181.0004        181.0004
 -14153249.70848 -11015884.05446  21442779.9914   21442784.0084   21442779.6104
      -862.0184       -671.7014        179.0004        180.0004
   5048245.52146   4451771.87644  24600724.6464   24600732.6974   24600724.4974
     -2505.9254      -1952.6554        112.0004        124.0004
   5927032.82746   4633560.60344  24724852.1944   24724859.3844   24724851.6954
     -2598.4444      -2024.7524        119.0004        130.0004
  -8018232.37447  -6229018.17245  22246291.2724   22246297.1324   22246291.2064
      1732.5774       1350.0754        157.0004        160.0004
 -18039718.39548 -14043040.17346  20895419.1944   20895424.2944   20895419.1794
     -1635.9194      -1274.7394        185.0004        185.0004
 07  7 18  8 24  0.0000000  0  7G16G15G21G30G 6G 3G25
 -13237427.45948 -10171082.34846  21556880.4774   21556884.8854   21556880.1844
      1664.0424       1296.6584        174.0004        176.0004
 -14949226.42048 -11626428.77546  21222882.1224   21222887.8194   21222881.5664
      2352.5834       1833.1724        181.0004        182.0004
 -14127119.99148 -10995523.25646  21447752.2784   21447756.3464   21447751.9184
      -879.9534       -685.6914        179.0004        180.0004
   5123492.89146   4510406.04544  24615043.7944   24615051.8714   24615043.8184
     -2510.5824      -1956.2944        117.0004        129.0004
   6004951.88946   4694276.63444  24739679.7204   24739687.2614   24739679.4604
     -2596.1364      -2022.9754        120.0004        129.0004
  -8070087.17547  -6269424.49245  22236423.6124   22236429.5384   22236423.5524
      1724.3994       1343.6874        157.0004        160.0004
 -17990397.52348 -14004608.35146  20904804.6004   20904809.7484   20904804.6324
     -1652.1484      -1287.3904        185.0004        185.0004
 07  7 18  8 24 30.0000000  0  7G16G15G21G30G 6G 3G25
 -13287298.89248 -10209943.20646  21547390.3204   21547394.6794   21547389.9764
      1660.6694       1294.0364        175.0004        176.0004
 -15019593.39548 -11681260.17846  21209491.6734   21209497.3584   21209491.1564
      2338.4904       1822.2074        181.0004        182.0004
 -14100455.40148 -10974745.66946  21452826.4604   21452830.4544   21452826.0324
      -897.7254       -699.5164        179.0004        180.0004
   5198877.20646   4569146.79744  24629389.1624   24629397.4934   24629389.4114
     -2515.1294      -1959.8274        119.0004        129.0004
   6082798.58346   4754936.27444  24754493.8174   24754501.6224   24754493.2734
     -2593.6404      -2021.0164        119.0004        129.0004
  -8121699.24447  -6309641.68845  22226602.1104   22226608.1044   22226602.0614
      1716.3354       1337.3984        158.0004        160.0004
 -17940592.94148 -13965799.62846  20914282.2004   20914287.2714   20914282.1844
     -1668.1704      -1299.8714        184.0004        185.0004
 07  7 18  8 25  0.0000000  0  7G16G15G21G30G 6G 3G25
 -13337067.44248 -10248723.89046  21537919.6784   21537924.0164   21537919.3794
      1657.2654       1291.3614        175.0004        176.0004
 -15089534.73548 -11735759.91546  21196182.2824   21196187.9484   21196181.7234
      2324.2864       1811.1174        181.0004        182.0004
 -14073256.81748 -10953551.97246  21458002.1924   21458006.2094   21458001.7824
      -915.4724       -713.3504        179.0004        180.0004
   5274398.33146   4627994.21444  24643760.7634   24643768.7204   24643760.4294
     -2519.6344      -1963.3474        120.0004        129.0004
   6160572.78146   4815539.45144  24769293.4704   24769301.6894   24769293.2574
     -2591.1614      -2019.0744        120.0004        130.0004
  -8173068.77647  -6349669.87545  22216826.7184   22216832.8084   22216826.6934
      1708.3404       1331.1764        158.0004        160.0004
 -17890306.20648 -13926615.18846  20923851.4324   20923856.5304   20923851.3934
     -1684.1904      -1312.3524        184.0004        184.0004
 07  7 18  8 25 30.0000000  0  7G16G15G21G30G 6G 3G25
 -13386732.21448 -10287423.71346  21528468.7454   21528473.1334   21528468.4204
      1653.6874       1288.5824        175.0004        176.0004
 -15159048.10748 -11789926.16546  21182954.2704   21182960.0054   21182953.7494
      2309.9284       1799.9424        181.0004        182.0004
 -14045525.24948 -10931942.97046  21463279.4364   21463283.3684   21463278.9514
      -933.3134       -727.2664        179.0004        179.0004
   5350056.06746   4686948.12644  24658157.8214   24658166.3854   24658158.1184
     -2524.2314      -1966.9264        119.0004        128.0004
   6238273.69746   4876085.49044  24784079.9894   24784087.7874   24784079.4044
     -2588.8534      -2017.2804        121.0004        129.0004
  -8224196.08147  -6389509.31845  22207097.6324   22207103.4834   22207097.4704
      1700.1694       1324.8054        157.0004        158.0004
 -17839538.95148 -13887056.31846  20933512.0724   20933517.2424   20933512.0884
     -1700.2764      -1324.8854        184.0004        185.0004
 07  7 18  8 26  0.0000000  0  7G16G15G21G30G 6G 3G25
 -13436291.64548 -10326041.44746  21519037.8704   21519042.2704   21519037.6194
      1650.2244       1285.8784        175.0004        176.0004
 -15228131.20948 -11843757.15146  21169808.2114   21169813.8894   21169807.6894
      2295.6054       1788.7864        182.0004        182.0004
 -14017261.53848 -10909919.30946  21468657.8524   21468661.7844   21468657.3724
      -950.9894       -741.0454        179.0004        180.0004
   5425850.43346   4746008.47944  24672580.8084   24672589.7684   24672581.5674
     -2528.7144      -1970.4214        119.0004        129.0004
   6315900.90146   4936574.12044  24798851.8874   24798859.6704   24798851.0804
     -2586.3824      -2015.3524        121.0004        130.0004
  -8275081.38247  -6429160.19145  22197414.4574   22197420.2304   22197414.2134
      1692.1444       1318.5474        157.0004        159.0004
 -17788292.86048 -13847124.33546  20943263.9124   20943269.0984   20943263.9244
     -1716.1804      -1337.2804        184.0004        185.0004
 07  7 18  8 26 30.0000000  0  7G16G15G21G30G 6G 3G25
 -13485744.12748 -10364575.85946  21509627.3764   21509631.7484   21509627.1124
      1646.5834       1283.0484        175.0004        176.0004
 -15296781.50148 -11897250.88246  21156744.4274   21156750.1874   21156743.9234
      2281.0594       1777.4404        182.0004        183.0004
 -13988466.53848 -10887481.66446  21474137.2724   21474141.3094   21474136.8404
      -968.7234       -754.8514        179.0004        180.0004
   5501781.47046   4805175.23144  24687030.4004   24687039.3314   24687030.9204
     -2533.4274      -1974.0824        121.0004        130.0004
   6393454.22046   4997005.13445  24813609.9904   24813617.9214   24813609.5584
     -2583.9804      -2013.4844        122.0004        133.0004
  -8325724.99747  -6468622.73245  22187777.2124   22187783.1124   22187777.0264
      1684.0814       1312.2714        157.0004        159.0004
 -17736569.12148 -13806820.15946  20953106.7224   20953111.8124   20953106.7274
     -1732.1524      -1349.7154        184.0004        185.0004
 07  7 18  8 27  0.0000000  0  7G16G15G21G30G 6G 3G25
 -13535088.47348 -10403025.99446  21500237.4284   21500241.8704   21500237.1624
      1642.8894       1280.1874        176.0004        176.0004
 -15364996.72748 -11950405.59946  21143763.5324   21143769.2664   21143763.0124
      2266.4434       1766.0634        182.0004        183.0004
 -13959141.35848 -10864630.88046  21479717.7154   21479721.7254   21479717.2634
      -986.4564       -768.6654        179.0004        180.0004
   5577848.85146   4864448.29844  24701505.4444   24701514.7144   24701506.0464
     -2538.0714      -1977.7194        119.0004        128.0004
   6470932.95746   5057378.04445  24828353.7774   24828361.6914   24828353.5144
     -2581.5684      -2011.6054        123.0004        132.0004
  -8376127.49547  -6507897.41345  22178186.0654   22178191.8704   22178185.8144
      1675.9554       1305.9434        159.0004        161.0004
 -17684369.42148 -13766145.09846  20963040.0114   20963045.1144   20963040.0294
     -1748.0084      -1362.0884        184.0004        185.0004
 07  7 18  8 27 30.0000000  0  7G16G15G21G30G 6G 3G25
 -13584323.79548 -10441391.17546  21490868.2814   21490872.7174   21490868.0004
      1639.3694       1277.4314        176.0004        177.0004
 -15432774.81448 -12003219.68446  21130865.8374   21130871.5264   21130865.2994
      2251.9884       1754.8054        182.0004        183.0004
 -13929287.67848 -10841368.29246  21485398.6264   21485402.6414   21485398.2334
     -1003.9124       -782.2564        178.0004        179.0004
   5654052.08346   4923827.23344  24716006.4824   24716015.7124   24716006.8754
     -2542.5054      -1981.1484        117.0004        127.0004
   6548336.16246   5117692.12144  24843082.8144   24843091.0404   24843082.2384
     -2578.8104      -2009.4674        120.0004        129.0004
  -8426289.60247  -6546984.76945  22168640.5084   22168646.3884   22168640.3574
      1668.1214       1299.8324        160.0004        162.0004
 -17631696.27648 -13725101.12346  20973063.3434   20973068.4784   20973063.3814
     -1763.6214      -1374.2524        184.0004        184.0004
 07  7 18  8 28  0.0000000  0  7G16G15G21G30G 6G 3G25
 -13633448.33148 -10479670.02946  21481520.1764   21481524.6514   21481519.8924
      1635.6974       1274.5644        176.0004        177.0004
 -15500113.12948 -12055691.09146  21118051.7704   21118057.4994   21118051.2394
      2237.3384       1743.4034        182.0004        184.0004
 -13898905.59248 -10817693.95146  21491180.2124   21491184.1014   21491179.7564
     -1021.4544       -795.9464        178.0004        178.0004
   5730391.30646   4983312.16244  24730533.8464   24730542.3404   24730533.9404
     -2546.8894      -1984.5764        116.0004        127.0004
   6625663.87346   5177947.34544  24857798.0744   24857806.2524   24857797.4894
     -2576.2574      -2007.4644        120.0004        129.0004
  -8476211.22547  -6585884.72445  22159140.8304   22159146.5744   22159140.6184
      1660.1184       1293.6014        159.0004        161.0004
 -17578550.72148 -13683689.03446  20983176.6594   20983181.7804   20983176.7164
     -1779.3154      -1386.4774        184.0004        184.0004
 07  7 18  8 28 30.0000000  0  7G16G15G21G30G 6G 3G25
 -13682460.56448 -10517861.38246  21472193.4904   21472197.9774   21472193.2274
      1631.7414       1271.4864        177.0004        177.0004
 -15567009.37948 -12107818.02846  21105321.7804   21105327.5184   21105321.2824
      2222.3814       1731.7184        182.0004        183.0004
 -13867996.34248 -10793608.82446  21497062.0574   21497065.9944   21497061.6274
     -1039.1984       -809.7814        178.0004        179.0004
   5806866.60946   5042903.05144  24745087.2094   24745096.3514   24745086.3124
     -2551.5584      -1988.2284        113.0004        124.0004
   6702915.40946   5238143.22144  24872498.1074   24872506.5864   24872497.8504
     -2573.8324      -2005.5804        120.0004        129.0004
  -8525892.69747  -6624597.55645  22149686.7824   22149692.4374   22149686.5304
      1651.9434       1287.2184        158.0004        160.0004
 -17524934.35048 -13641910.08146  20993379.5374   20993384.6874   20993379.6014
     -1795.1454      -1398.8164        183.0004        184.0004
 07  7 18  8 29  0.0000000  0  7G16G15G21G30G 6G 3G25
 -13731359.31148 -10555964.31146  21462888.3694   21462892.7884   21462888.0774
      1627.9914       1268.5854        176.0004        178.0004
 -15633461.30248 -12159598.74246  21092676.3504   21092682.0934   21092675.8754
      2207.5504       1720.1734        182.0004        183.0004
 -13836561.22048 -10769113.94546  21503043.8684   21503047.9204   21503043.4954
     -1056.6944       -823.3964        178.0004        178.0004
   5883477.47346   5102599.51944  24759665.9434   24759674.4474   24759665.2504
     -2556.0494      -1991.7234        115.0004        126.0004
   6780090.50346   5298279.54544  24887184.2624   24887192.3434   24887183.7034
     -2571.2624      -2003.5834        120.0004        129.0004
  -8575334.74447  -6663123.81745  22140278.1784   22140283.8474   22140277.9094
      1643.9894       1281.0294        158.0004        161.0004
 -17470849.04648 -13599765.71746  21003671.6424   21003676.7894   21003671.6994
     -1810.7454      -1410.9644        183.0004        184.0004
